DW5684 Weather Reports


time (UTC)temp
F
wind
direction
speed
knots
gust
knots
rain 1hr
in
rain 24hr
in
rain mn
in
humidity
%
barometer
mb
20260510143819 63 326 0.9 4.3 0.00 0.00 0.00 63 1019.8
20260510143332 63 110 1.7 7.0 0.00 0.00 0.00 63 1019.9
20260510142827 63 3 1.7 5.2 0.00 0.00 0.00 63 1019.9
20260510142321 63 236 2.6 5.2 0.00 0.00 0.00 64 1019.8
20260510141816 63 328 0.9 5.2 0.00 0.00 0.00 67 1019.7
20260510141331 63 293 2.6 5.2 0.00 0.00 0.00 67 1019.8
20260510140825 63 70 0.9 6.1 0.00 0.00 0.00 69 1019.8
20260510140324 62 331 2.6 6.1 0.00 0.00 0.00 68 1019.6
20260510135838 63 315 1.7 4.3 0.00 0.00 0.00 70 1019.4
20260510135331 63 224 0.9 4.3 0.00 0.00 0.00 69 1019.3
20260510134825 63 347 1.7 4.3 0.00 0.00 0.00 70 1019.2
20260510134340 62 297 1.7 6.1 0.00 0.00 0.00 71 1019.1
20260510133833 62 4 1.7 6.1 0.00 0.00 0.00 71 1018.7
20260510133325 62 62 1.7 4.3 0.00 0.00 0.00 71 1018.7
20260510132818 62 342 1.7 4.3 0.00 0.00 0.00 72 1018.6
20260510132332 62 325 1.7 5.2 0.00 0.00 0.00 73 1018.6
20260510131826 62 326 1.7 5.2 0.00 0.00 0.00 72 1018.5
20260510131325 62 344 0.9 3.5 0.00 0.00 0.00 75 1018.3
20260510130819 62 288 1.7 7.8 0.00 0.00 0.00 75 1018.2
20260510130333 62 271 1.7 7.8 0.00 0.00 0.00 75 1018.4
20260510125828 62 324 2.6 5.2 0.00 0.00 0.00 75 1018.3
20260510125323 62 219 2.6 6.1 0.00 0.00 0.00 76 1018.2
20260510124818 62 304 1.7 3.5 0.00 0.00 0.00 77 1018.3
20260510124333 62 300 0.9 4.3 0.00 0.00 0.00 77 1018.1
20260510123827 62 281 0.9 2.6 0.00 0.00 0.00 77 1017.9
20260510123322 61 309 0.0 1.7 0.00 0.00 0.00 80 1017.7
20260510122841 60 288 0.9 1.7 0.00 0.00 0.00 82 1017.6
20260510122315 59 195 0.0 0.9 0.00 0.00 0.00 84 1017.5
20260510121829 59 269 0.0 0.9 0.00 0.00 0.00 85 1017.3
20260510121344 58 34 0.0 0.9 0.00 0.00 0.00 85 1017.2
20260510120817 58 116 0.0 0.0 0.00 0.00 0.00 86 1017.2
20260510120332 58 236 0.0 2.6 0.00 0.00 0.00 86 1017.1
20260510115827 58 278 0.9 2.6 0.00 0.00 0.00 86 1016.9
20260510115340 58 284 0.0 0.9 0.00 0.00 0.00 86 1016.9
20260510114814 58 314 0.0 1.7 0.00 0.00 0.00 86 1016.9
20260510114333 58 255 0.0 1.7 0.00 0.00 0.00 86 1016.8
20260510113828 58 270 0.0 2.6 0.00 0.00 0.00 86 1016.6
20260510113322 58 210 0.9 2.6 0.00 0.00 0.00 86 1016.5
20260510112817 58 300 0.0 2.6 0.00 0.00 0.00 86 1016.4
20260510112332 58 295 0.0 4.3 0.00 0.00 0.00 86 1016.3
20260510111825 58 316 1.7 4.3 0.00 0.00 0.00 86 1016.0
20260510111320 58 254 0.9 2.6 0.00 0.00 0.00 87 1016.0
20260510110835 58 310 0.0 2.6 0.00 0.00 0.00 87 1016.0
20260510110313 58 328 0.9 2.6 0.00 0.00 0.00 87 1015.9
20260510105828 58 324 0.9 2.6 0.00 0.00 0.00 88 1016.1
20260510105322 57 307 0.0 1.7 0.00 0.00 0.00 88 1016.0
20260510104817 57 315 0.0 1.7 0.00 0.00 0.00 89 1016.0
20260510104332 57 291 0.0 0.0 0.00 0.00 0.00 88 1016.0
20260510103847 57 53 0.0 0.0 0.00 0.00 0.00 88 1016.1
20260510103321 57 55 0.0 0.0 0.00 0.00 0.00 88 1016.0
20260510102815 57 53 0.0 0.0 0.00 0.00 0.00 88 1016.0
20260510102314 57 57 0.0 0.0 0.00 0.00 0.00 88 1016.0
20260510101829 57 259 0.0 0.0 0.00 0.00 0.00 88 1015.8
20260510101324 58 259 0.0 0.0 0.00 0.00 0.00 88 1015.8
20260510100818 58 257 0.0 0.0 0.00 0.00 0.00 88 1015.8
20260510100332 58 300 0.0 0.0 0.00 0.00 0.00 88 1015.6
20260510095827 58 309 0.0 0.9 0.00 0.00 0.00 89 1015.8
20260510095321 58 307 0.0 0.9 0.00 0.00 0.00 89 1015.6
20260510094814 58 318 0.0 0.0 0.00 0.00 0.00 88 1015.5
20260510094347 58 318 0.0 0.0 0.00 0.00 0.00 88 1015.3
20260510093824 58 318 0.0 0.0 0.00 0.00 0.00 87 1015.1
20260510093318 58 318 0.0 0.0 0.00 0.00 0.00 87 1014.9
20260510092832 58 318 0.0 0.0 0.00 0.00 0.00 87 1014.8
20260510092327 58 318 0.0 0.0 0.00 0.00 0.00 87 1014.8
20260510091821 59 318 0.0 0.0 0.00 0.00 0.00 87 1014.7
20260510091316 58 318 0.0 0.0 0.00 0.00 0.00 86 1014.6
20260510090829 59 319 0.0 0.0 0.00 0.00 0.00 85 1014.6
20260510090344 59 318 0.0 0.0 0.00 0.00 0.00 85 1014.4
20260510085837 59 318 0.0 0.0 0.00 0.00 0.00 85 1014.3
20260510085315 59 318 0.0 0.0 0.00 0.00 0.00 85 1014.2
20260510084830 59 318 0.0 0.0 0.00 0.00 0.00 84 1014.1
20260510084325 60 318 0.0 0.0 0.00 0.00 0.00 83 1014.2
20260510083840 60 319 0.0 0.0 0.00 0.00 0.00 82 1014.2
20260510083314 60 319 0.0 0.9 0.00 0.00 0.00 82 1014.1
20260510082849 61 319 0.0 1.7 0.00 0.00 0.00 82 1014.3
20260510082323 60 320 0.9 1.7 0.00 0.00 0.00 83 1014.5
20260510081839 60 319 0.0 0.9 0.00 0.00 0.00 84 1014.3
20260510081333 59 319 0.0 0.0 0.00 0.00 0.00 85 1014.2
20260510080827 59 318 0.0 0.0 0.00 0.00 0.00 83 1014.2
20260510080326 60 317 0.0 0.0 0.00 0.00 0.00 82 1014.1
20260510075821 60 318 0.0 0.0 0.00 0.00 0.00 81 1014.0
20260510075315 60 318 0.0 0.0 0.00 0.00 0.00 82 1014.1
20260510074830 60 318 0.0 0.0 0.00 0.00 0.00 81 1014.0
20260510074324 60 318 0.0 0.0 0.00 0.00 0.00 81 1014.1
20260510073837 60 318 0.0 0.0 0.00 0.00 0.00 80 1014.1
20260510073330 61 317 0.0 0.0 0.00 0.00 0.00 80 1014.1
20260510072845 61 318 0.0 0.0 0.00 0.00 0.00 79 1014.1
20260510072323 61 318 0.0 0.0 0.00 0.00 0.00 79 1014.1
20260510071818 61 318 0.0 0.0 0.00 0.00 0.00 80 1014.0
20260510071332 61 317 0.0 0.0 0.00 0.00 0.00 80 1014.0
20260510070825 61 318 0.0 0.0 0.00 0.00 0.00 80 1013.8
20260510070340 62 318 0.0 0.0 0.00 0.00 0.00 80 1013.8
20260510065854 62 317 0.0 0.0 0.00 0.01 0.00 79 1013.8
20260510065329 62 317 0.0 0.0 0.00 0.01 0.00 79 1013.8
20260510064823 62 319 0.0 0.0 0.00 0.01 0.00 77 1013.8
20260510064319 62 319 0.0 0.0 0.00 0.01 0.00 78 1013.9
20260510063818 62 319 0.0 0.0 0.00 0.01 0.00 77 1013.9
20260510063333 62 319 0.0 0.0 0.00 0.01 0.00 77 1013.8
20260510062829 62 319 0.0 0.0 0.00 0.01 0.00 77 1013.6
20260510062323 62 319 0.0 0.0 0.00 0.01 0.00 77 1013.5
20260510061817 62 319 0.0 0.0 0.00 0.01 0.00 78 1013.6
20260510061332 62 319 0.0 0.0 0.00 0.01 0.00 78 1013.7
20260510060827 62 319 0.0 0.0 0.00 0.01 0.00 78 1013.7
20260510060326 62 319 0.0 0.0 0.00 0.01 0.00 78 1013.8
20260510055820 63 319 0.0 0.0 0.00 0.01 0.00 76 1013.8
20260510055315 64 319 0.0 0.0 0.00 0.01 0.00 76 1013.8
20260510054849 64 319 0.0 0.0 0.00 0.01 0.00 76 1013.8
20260510054324 64 319 0.0 0.0 0.00 0.01 0.00 73 1013.8
20260510053839 65 319 0.0 0.0 0.00 0.01 0.00 71 1013.9
20260510053332 65 319 0.0 0.0 0.00 0.01 0.00 70 1013.9
20260510052826 66 319 0.0 0.9 0.00 0.01 0.00 69 1013.9
20260510052319 66 257 0.0 0.0 0.00 0.01 0.00 70 1013.9
20260510051819 66 256 0.0 0.0 0.00 0.01 0.00 68 1013.8
20260510051313 66 256 0.0 1.7 0.00 0.01 0.00 67 1013.7
20260510050849 66 309 0.0 4.3 0.00 0.01 0.00 68 1013.7
20260510050322 66 250 0.9 6.1 0.00 0.01 0.00 68 1013.8
20260510045817 65 22 1.7 6.1 0.00 0.01 0.01 69 1013.9
20260510045332 66 334 0.0 1.7 0.00 0.01 0.01 70 1013.8
20260510044827 66 276 0.0 0.0 0.00 0.01 0.01 66 1013.4
20260510044321 66 222 0.0 0.0 0.00 0.01 0.01 66 1013.4
20260510043820 66 222 0.0 0.0 0.00 0.01 0.01 65 1013.4
20260510043315 66 222 0.0 0.0 0.00 0.01 0.01 64 1013.4
20260510042850 66 221 0.0 0.0 0.00 0.01 0.01 64 1013.3
20260510042323 66 217 0.0 0.0 0.00 0.01 0.01 66 1013.2
20260510041839 66 218 0.0 0.0 0.00 0.01 0.01 65 1013.0
20260510041332 66 217 0.0 0.0 0.00 0.01 0.01 65 1013.0
20260510040827 66 216 0.0 0.0 0.00 0.01 0.01 66 1013.0
20260510040322 65 221 0.0 0.0 0.00 0.01 0.01 69 1012.9
20260510035838 64 214 0.0 0.0 0.00 0.01 0.01 69 1012.9
20260510035315 64 214 0.0 0.0 0.00 0.01 0.01 69 1012.9
20260510034830 64 214 0.0 0.0 0.00 0.01 0.01 71 1012.8
20260510034325 64 214 0.0 0.0 0.00 0.01 0.01 72 1012.7
20260510033820 65 214 0.0 0.0 0.00 0.01 0.01 72 1012.6
20260510033354 65 214 0.0 0.0 0.00 0.01 0.01 71 1012.4
20260510032828 65 214 0.0 0.0 0.00 0.01 0.01 72 1012.3
20260510032323 64 214 0.0 0.0 0.00 0.01 0.01 71 1012.5
20260510031818 64 214 0.0 0.0 0.00 0.01 0.01 75 1012.5
20260510031317 64 214 0.0 0.0 0.00 0.01 0.01 71 1012.5
20260510030831 64 214 0.0 0.0 0.00 0.01 0.01 72 1012.5
20260510030326 63 214 0.0 0.0 0.00 0.01 0.01 71 1012.5
20260510025822 63 214 0.0 0.0 0.00 0.01 0.01 72 1012.3
20260510025316 63 214 0.0 0.0 0.00 0.01 0.01 73 1012.3
20260510024831 63 214 0.0 0.0 0.00 0.01 0.01 75 1012.2
20260510024326 64 214 0.0 0.0 0.00 0.01 0.01 76 1012.1
20260510023821 64 214 0.0 0.0 0.00 0.01 0.01 76 1011.9
20260510023340 63 214 0.0 0.0 0.00 0.01 0.01 71 1011.8
20260510022814 63 214 0.0 0.0 0.00 0.01 0.01 73 1011.7
20260510022329 63 214 0.0 0.0 0.00 0.01 0.01 73 1011.7
20260510021824 63 214 0.0 0.0 0.00 0.01 0.01 72 1011.5
20260510021320 63 214 0.0 0.0 0.00 0.01 0.01 71 1011.4
20260510020815 64 214 0.0 0.0 0.00 0.01 0.01 70 1011.2
20260510020330 64 214 0.0 0.0 0.00 0.01 0.01 69 1011.2
20260510015825 65 214 0.0 0.0 0.00 0.01 0.01 68 1011.1
20260510015324 65 214 0.0 0.0 0.00 0.01 0.01 68 1010.9
20260510014816 66 214 0.0 0.0 0.00 0.01 0.01 68 1010.8
20260510014351 66 214 0.0 0.0 0.00 0.01 0.01 67 1010.6
20260510013824 66 214 0.0 0.0 0.00 0.01 0.01 67 1010.5
20260510013320 67 214 0.0 0.0 0.00 0.01 0.01 67 1010.4
20260510012815 67 214 0.0 0.0 0.00 0.01 0.01 66 1010.4
20260510012330 68 214 0.0 0.0 0.00 0.01 0.01 64 1010.3
20260510011825 69 214 0.0 0.0 0.00 0.01 0.01 63 1010.2
20260510011345 69 214 0.0 0.0 0.00 0.01 0.01 62 1010.2
20260510010819 70 214 0.0 0.0 0.00 0.01 0.01 61 1010.2
20260510010333 71 214 0.0 0.0 0.00 0.01 0.01 58 1010.2
20260510005828 72 214 0.0 0.0 0.00 0.01 0.01 57 1010.1
20260510005323 73 214 0.0 0.0 0.00 0.01 0.01 55 1010.1
20260510004816 74 214 0.0 0.0 0.00 0.01 0.01 53 1010.0
20260510004331 74 214 0.0 0.0 0.00 0.01 0.01 53 1010.0
20260510003845 75 214 0.0 0.0 0.00 0.01 0.01 51 1010.0
20260510003322 76 214 0.0 0.0 0.00 0.01 0.01 51 1009.9
20260510002818 76 217 0.0 0.0 0.00 0.01 0.01 50 1009.9
20260510002332 77 225 0.0 0.0 0.00 0.01 0.01 48 1009.9
20260510001846 77 226 0.0 0.0 0.00 0.01 0.01 49 1009.9
20260510001319 78 221 0.0 0.0 0.00 0.01 0.01 47 1009.8
20260510000832 79 221 0.0 0.0 0.00 0.01 0.01 46 1009.8
20260510000327 79 233 0.0 0.0 0.00 0.01 0.01 45 1009.9
20260509235822 80 223 0.0 1.7 0.00 0.01 0.01 43 1009.9
20260509235317 80 185 0.0 1.7 0.00 0.01 0.01 46 1010.0
20260509234815 80 222 0.0 0.0 0.00 0.01 0.01 45 1009.9
20260509234330 80 117 0.0 0.9 0.00 0.01 0.01 45 1009.9
20260509233825 80 225 0.0 2.6 0.00 0.01 0.01 43 1010.0
20260509233320 80 221 0.0 2.6 0.00 0.01 0.01 42 1010.0
20260509232815 81 224 0.9 1.7 0.00 0.01 0.01 42 1010.0
20260509232328 80 219 0.0 0.0 0.00 0.01 0.01 45 1010.0
20260509231823 80 186 0.0 2.6 0.00 0.01 0.01 45 1010.0
20260509231318 80 195 0.0 4.3 0.00 0.01 0.01 44 1009.9
20260509230853 80 143 0.0 3.5 0.00 0.01 0.01 44 1009.9
20260509230347 81 167 0.0 4.3 0.00 0.01 0.01 42 1009.9
20260509225825 81 207 1.7 4.3 0.00 0.01 0.01 40 1010.0
20260509225319 82 143 0.0 1.7 0.00 0.01 0.01 41 1009.9
20260509224854 82 160 0.0 3.5 0.00 0.01 0.01 41 1009.9
20260509224327 82 212 0.0 3.5 0.00 0.01 0.01 40 1010.0
20260509223822 83 219 0.0 2.6 0.00 0.01 0.01 39 1009.9
20260509223336 82 222 0.0 3.5 0.00 0.01 0.01 38 1010.0
20260509222828 83 205 0.9 3.5 0.00 0.01 0.01 36 1009.9
20260509222342 84 217 0.9 2.6 0.00 0.01 0.01 36 1009.9
20260509221816 85 214 0.0 2.6 0.00 0.01 0.01 35 1009.9
20260509221315 85 290 0.9 2.6 0.00 0.01 0.01 33 1010.0
20260509220830 85 284 0.0 0.0 0.00 0.01 0.01 37 1009.9
20260509220326 85 214 0.0 2.6 0.00 0.01 0.01 35 1009.9
20260509215821 84 307 0.9 4.3 0.00 0.01 0.01 32 1009.9
20260509215315 84 223 1.7 4.3 0.00 0.01 0.01 34 1009.9
20260509214829 84 237 0.0 2.6 0.00 0.01 0.01 36 1010.0
20260509214324 83 139 0.9 2.6 0.00 0.01 0.01 39 1010.0
20260509213818 83 217 0.0 2.6 0.00 0.01 0.01 37 1010.0
20260509213317 84 297 0.0 7.0 0.00 0.01 0.01 36 1010.0
20260509212831 84 322 1.7 7.0 0.00 0.01 0.01 35 1010.0
20260509212326 85 316 0.0 3.5 0.00 0.01 0.01 37 1010.0
20260509211818 85 58 0.0 1.7 0.00 0.01 0.01 38 1010.0
20260509211332 85 229 0.0 2.6 0.00 0.01 0.01 36 1010.1
20260509210846 85 79 0.0 2.6 0.00 0.01 0.01 35 1010.1
20260509210320 85 219 0.9 2.6 0.00 0.01 0.01 37 1010.2
20260509205814 84 200 0.0 2.6 0.00 0.01 0.01 40 1010.4
20260509205329 83 334 0.9 5.2 0.00 0.01 0.01 37 1010.4
20260509204827 84 309 1.7 5.2 0.00 0.01 0.01 36 1010.4
20260509204321 84 288 0.9 2.6 0.00 0.01 0.01 39 1010.5
20260509203816 84 313 0.0 4.3 0.00 0.01 0.01 40 1010.5
20260509203332 84 214 2.6 5.2 0.00 0.01 0.01 37 1010.5
20260509202827 84 309 1.7 5.2 0.00 0.01 0.01 35 1010.5
20260509202322 85 285 0.0 1.7 0.00 0.01 0.01 39 1010.6
20260509201817 85 255 0.0 0.9 0.00 0.01 0.01 39 1010.6
20260509201352 84 213 0.0 4.3 0.00 0.01 0.01 38 1010.7
20260509200824 84 210 0.9 4.3 0.00 0.01 0.01 38 1010.7
20260509200323 84 163 0.9 3.5 0.00 0.01 0.01 35 1010.7
20260509195817 84 297 0.9 3.5 0.00 0.01 0.01 37 1010.8
20260509195331 84 221 0.0 2.6 0.00 0.01 0.01 37 1010.8
20260509194826 84 240 0.9 4.3 0.00 0.01 0.01 39 1010.8
20260509194321 84 210 0.9 4.3 0.00 0.01 0.01 38 1010.9
20260509193816 84 217 0.9 4.3 0.00 0.01 0.01 36 1010.9
20260509193331 84 219 1.7 4.3 0.00 0.01 0.01 37 1010.9
20260509192829 84 131 0.0 2.6 0.00 0.01 0.01 36 1011.0
20260509192324 84 257 0.0 4.3 0.00 0.01 0.01 37 1011.0
20260509191819 84 217 0.9 4.3 0.00 0.01 0.01 33 1011.0
20260509191314 84 218 0.0 2.6 0.00 0.01 0.01 37 1011.0
20260509190849 82 195 0.0 5.2 0.00 0.01 0.01 38 1011.0
20260509190322 82 25 0.9 5.2 0.00 0.01 0.01 45 1010.9
20260509185818 82 274 0.0 3.5 0.00 0.01 0.01 38 1011.0
20260509185353 82 330 0.0 4.3 0.00 0.01 0.01 37 1011.0
20260509184827 81 331 1.7 7.0 0.00 0.01 0.01 40 1011.1
20260509184326 82 311 1.7 7.0 0.00 0.01 0.01 36 1011.1
20260509183820 82 274 0.0 4.3 0.00 0.01 0.01 36 1011.1
20260509183314 82 203 0.9 5.2 0.00 0.01 0.01 42 1011.1
20260509182829 82 278 0.9 5.2 0.00 0.01 0.01 39 1011.2
20260509182324 81 264 0.0 7.8 0.00 0.01 0.01 40 1011.1
20260509181839 82 281 1.7 7.8 0.00 0.01 0.01 38 1011.1
20260509181332 82 186 0.0 2.6 0.00 0.01 0.01 37 1011.2
20260509180825 81 203 0.0 5.2 0.00 0.01 0.01 42 1011.2
20260509180340 81 294 0.9 7.0 0.00 0.01 0.01 45 1011.2
20260509175818 80 352 0.9 6.1 0.00 0.01 0.01 43 1011.2
20260509175313 80 289 1.7 6.1 0.00 0.01 0.01 41 1011.2
20260509174828 81 322 2.6 6.1 0.00 0.01 0.01 45 1011.3
20260509174323 80 295 0.9 4.3 0.00 0.01 0.01 44 1011.4
20260509173837 79 294 1.7 7.8 0.00 0.01 0.01 43 1011.3
20260509173331 79 329 4.3 7.8 0.00 0.01 0.01 41 1011.4
20260509172826 79 259 1.7 6.1 0.00 0.01 0.01 43 1011.6
20260509172320 79 333 2.6 7.0 0.00 0.01 0.01 43 1011.6
20260509171818 79 281 2.6 6.1 0.00 0.01 0.01 42 1011.6
20260509171333 79 58 1.7 4.3 0.00 0.01 0.01 43 1011.6
20260509170828 79 284 0.9 3.5 0.00 0.01 0.01 47 1011.5
20260509170322 79 342 1.7 3.5 0.00 0.01 0.01 47 1011.5
20260509165817 79 8 0.0 4.3 0.00 0.01 0.01 46 1011.6
20260509165332 78 332 2.6 4.3 0.00 0.01 0.01 47 1011.6
20260509164827 79 255 1.7 4.3 0.00 0.01 0.01 45 1011.7
20260509164325 79 276 1.7 2.6 0.00 0.01 0.01 44 1011.7
20260509163820 79 234 0.0 2.6 0.00 0.01 0.01 47 1011.7
20260509163315 78 281 0.0 2.6 0.00 0.01 0.01 51 1011.7
20260509162850 78 287 1.7 3.5 0.00 0.01 0.01 50 1011.8
20260509162322 78 305 0.9 4.3 0.00 0.01 0.01 49 1011.8
20260509161837 78 330 0.9 4.3 0.00 0.01 0.01 53 1011.8
20260509161331 78 311 0.0 3.5 0.00 0.01 0.01 53 1011.8
20260509160826 78 240 0.0 3.5 0.00 0.01 0.01 53 1011.8
20260509160341 77 210 0.0 3.5 0.00 0.01 0.01 55 1011.8
20260509155819 77 212 0.9 3.5 0.00 0.01 0.01 55 1011.9
20260509155314 77 280 0.0 2.6 0.00 0.01 0.01 57 1011.9
20260509154829 76 222 0.9 2.6 0.00 0.01 0.01 57 1011.9
20260509154324 75 215 0.0 1.7 0.00 0.01 0.01 61 1011.8
20260509153819 75 289 0.9 3.5 0.00 0.01 0.01 60 1011.9
20260509153314 74 212 0.9 3.5 0.00 0.01 0.01 63 1011.8
20260509152348 74 293 0.0 2.6 0.00 0.01 0.01 66 1011.7
20260509151840 73 283 0.0 2.6 0.00 0.01 0.01 64 1011.8
20260509151318 73 315 0.0 2.6 0.00 0.01 0.01 67 1011.8
20260509150832 73 287 0.0 7.0 0.00 0.01 0.01 64 1011.7
20260509150327 73 276 0.9 4.3 0.00 0.01 0.01 62 1011.7
20260509145822 73 283 0.0 2.6 0.00 0.01 0.01 66 1011.7
20260509145316 72 195 0.0 5.2 0.00 0.01 0.01 67 1011.7
20260509144831 71 297 0.0 1.7 0.00 0.01 0.01 71 1011.7
20260509144346 71 293 0.0 3.5 0.00 0.01 0.01 68 1011.8